Track RADIO ROSTO now! 10-day predictions RADIO ROSTO is classified as:
1 23439U 94085A 25199.91078154 -.00000039 00000-0 11075-3 0 9998 2 23439 64.8159 122.2033 0146312 66.7138 294.9110 11.27581654258323